{"data":{"norad_id":68367,"epoch":"2026-09-19T23:44:10.425984Z","epoch_age_seconds":116299,"freshness":"FRESH","line1":"1 68367U 26061H   26262.98900956  .00002208  00000+0  10420-3 0  9990","line2":"2 68367  82.2888 274.8252 0005138 126.2561 233.9148 15.18961870 27991","mean_motion":15.1896187,"eccentricity":0.0005138,"inclination_deg":82.2888,"raan_deg":274.8252,"arg_perigee_deg":126.2561,"mean_anomaly_deg":233.9148,"bstar":0.0001042,"rev_number":2799,"period_min":94.801589719958,"perigee_km":505.43821359592,"apogee_km":512.51541174982,"semimajor_km":6887.1138126729,"source":"CELESTRAK","updated_at":"2026-09-20T09:00:24.163410Z"}}